Retour au catalogue

CZ-6A DEB

ActifSSO
NORAD 56606·DEBRIS·🇨🇳 China

Lancé Nov 11, 2022 depuis Taiyuan Satellite Launch Center

Loading…

Prochains Passages (prochaines 24 heures)

TLE

FraisSource: Space-Track

Époque: Sep 14, 2026, 10:56 UTC

1 56606U 22151AEE 26257.45614234 -.00000012  00000-0  17623-4 0  9992
2 56606  98.8523 255.4830 0047129  88.4886 272.1682 14.09507464174394

Suivez CZ-6A DEB en temps réel avec AllMySat

Download on the App Store